Tracking 29892 objects as of 21-Nov-2024
HD Live streaming from Space Station
objects crossing your sky now

DELTA 1 DEB

Track DELTA 1 DEB now!
10-day predictions


NORAD ID: 14909
Int'l Code: 1978-026GJ
Perigee: 792.4 km
Apogee: 996.9 km
Inclination: 98.7 °
Period: 102.7 minutes
Semi major axis: 7265 km
RCS: 0.0353 m2 (small)
Launch date: March 5, 1978
Source: United States (US)
Launch site: AIR FORCE WESTERN TEST RANGE (AFWTR)

Note: This is SATELLITE DEBRIS
Your satellite tracking list
Your tracking list is empty




NASA's NSSDC Master Catalog

Two Line Element Set (TLE):
1 14909U 78026GJ  24325.65452573  .00004127  00000-0  25141-2 0  9998
2 14909  98.7445  23.9456 0140743  12.7583 138.4091 14.01819618165698
Source of the keplerian elements: AFSPC